sat.trackr.live / text

‹ back to catalog

STARLINK-32912

NORAD 63088 · 2025-037M

PAYLOAD ACTIVE UNKNOWN

§ Identity

Operator
Country
US
Launch date
2025-02-23
Launch site
AFWTR
Launch vehicle
Mass (kg)
RCS (m²)

Purposes: comms

External: N2YO · Heavens-Above · Gunter

§ Orbital elements

Epoch: 2026-05-25T02:43:04.577088Z

Period
96.11 min
Inclination
70.0005°
Eccentricity
0.0003939
Mean motion
14.98337507 rev/d
Perigee alt
569.3 km
Apogee alt
574.8 km
Semi-major
6,950.2 km
B*
2.7387e-4
RAAN
161.6017°
Arg perigee
266.6811°
Mean anomaly
93.3897°
Rev number
7,015

§ Raw data

STARLINK-329121 63088U 25037M   26145.11324742  .00003177  00000+0  27387-3 0  99912 63088  70.0005 161.6017 0003939 266.6811  93.3897 14.98337507 70154

JSON: /api/v1/satellites/63088 · /tle

For live sub-satellite position, see the globe view (requires WebGL).

§ Visibility from observer

Set your observer location to see the next 7 days of passes ≥ 10°. The values pass through the URL so the page stays shareable.

No JS? Fill the form by hand. The geolocation button needs JavaScript.